Regional Weather Roundup
Issued by NWS Glasgow, MT

Home | Current Version | Previous Version | Text Only | Print | Product List | Glossary On
Versions: 1 2 3 4 5 6 7 8 9 10 11 12 13 14 15 16 17 18 19 20 21 22 23 24 25 26 27 28 29 30 31 32 33 34 35 36 37 38 39 40 41 42 43 44 45 46 47 48 49 50
000
ASUS45 KGGW 291315
RWRGGW
HOURLY REGIONAL WEATHER ROUNDUP FOR NORTHEAST MONTANA
NATIONAL WEATHER SERVICE GLASGOW MONTANA
700 AM MDT THU SEP 29 2016

NOTE: "FAIR" INDICATES FEW OR NO CLOUDS BELOW 12,000 FEET WITH NO
SIGNIFICANT WEATHER AND/OR OBSTRUCTIONS TO VISISBILITY.

NORTHEAST MONTANA


CITY           SKY/WX    TMP DP  RH WIND       PRES   REMARKS
GLASGOW        CLEAR     53  45  74 SE9       30.11F
PLENTYWOOD       N/A     53  36  52 SE8         N/A
WOLF POINT     CLEAR     51  41  68 NE9       30.17S
JORDAN           N/A     56  46  69 SE5       30.12S
WINNETT          N/A     51  48  89 NE2         N/A
SIDNEY         CLEAR     46  39  76 CALM      30.23F
GLENDIVE       CLEAR     54  38  54 SE10      30.21F
MALTA            N/A     49  49 100 NE3         N/A
SCOBEY           N/A     52  36  54 SE8       30.15
OPHEIM           N/A     50  43  76 SE7       29.97R

FORT PECK REPORTS


CITY           SKY/WX    TMP DP  RH WIND       PRES   REMARKS
FORT PECK        N/A     60  46  59 E12G20      N/A
THE PINES        N/A     59  45  59 CALM        N/A

SOUTHEAST MONTANA


CITY           SKY/WX    TMP DP  RH WIND       PRES   REMARKS
BILLINGS       PTCLDY    49  47  93 SW8       30.14S
MILES CITY     CLEAR     58  42  55 SE20G30   30.14F
BAKER          CLEAR     48  39  71 SE15      30.25F
LIVINGSTON     CLOUDY    42  40  92 CALM      30.19S

CENTRAL MONTANA


CITY           SKY/WX    TMP DP  RH WIND       PRES   REMARKS
HAVRE          CLEAR     40  40 100 MISG      30.10R
LEWISTOWN      CLEAR     44  41  89 SE7       30.12S
GREAT FALLS    CLEAR     41  39  93 NW3       30.09F
CUT BANK       CLEAR     36  35  96 N6        30.10F
HELENA         CLEAR     45  41  86 CALM      30.16R
BUTTE          CLEAR     38  35  89 CALM      30.21S
BOZEMAN        CLEAR     43  40  89 S7        30.19S

WESTERN MONTANA


CITY           SKY/WX    TMP DP  RH WIND       PRES   REMARKS
MISSOULA       CLEAR     47  44  90 CALM      30.07R
KALISPELL      NOT AVBL

NORTH DAKOTA


CITY           SKY/WX    TMP DP  RH WIND       PRES   REMARKS
WILLISTON      CLEAR     52  42  69 SE9       30.25F
DICKINSON      CLEAR     41  39  93 SE13      30.28S
MINOT          CLEAR     46  43  89 SE9       30.35S
BISMARCK       CLEAR     39  39 100 NE6       30.40R

SOUTHERN SASKATCHEWAN


CITY           SKY/WX    TMP DP  RH WIND       PRES   REMARKS
REGINA         PTCLDY    50  43  76 SE15      30.21F
MOOSE JAW      PTCLDY    45  41  87 SE7       30.18F
ESTEVAN        PTCLDY    45  43  93 E8        30.27S
SWIFT CURRENT  CLEAR     43  41  93 SE6       30.11F




USA.gov is the U.S. government's official web portal to all federal, state and local government web resources and services.